Location: Baia Mare
(47.6567°N, 23.5850°E)
Time: 03:49:51
(UTC+03:00)

ISS - Pass Details

Date: 06 September 2018
Orbit: 403 x 408 km, 51.6° (Epoch: 26 September)

Event Time Altitude Azimuth Distance (km) Brightness Sun altitude
Exits shadow 04:09:24 25° 86° (E) 858 -1.7 -24.8°
Drops below altitude 10° 04:11:01 10° 73° (ENE) 1,464 -0.2 -24.6°
Sets 04:13:08 0° 68° (ENE) 2,326 1.2 -24.3°
